Time,TemperatureF,DewpointF,PressureIn,WindDirection,WindDirectionDegrees,WindSpeedMPH,WindSpeedGustMPH,Humidity,HourlyPrecipIn,Conditions,Clouds,dailyrainin,SoftwareType,DateUTC
2013-02-25 00:02:00,27.4,23.5,30.20,South,190,0.0,0.0,85,0.00,,,0.04,WUHU216DAVISVP2,2013-02-25 05:02:00,
2013-02-25 00:07:00,27.1,23.4,30.20,South,190,0.0,0.0,86,0.00,,,0.00,WUHU216DAVISVP2,2013-02-25 05:07:00,
2013-02-25 00:12:00,26.8,23.1,30.21,South,190,0.0,0.0,86,0.00,,,0.00,WUHU216DAVISVP2,2013-02-25 05:12:00,
2013-02-25 00:18:00,26.7,23.0,30.21,South,190,0.0,1.0,86,0.00,,,0.00,WUHU216DAVISVP2,2013-02-25 05:18:00,
2013-02-25 00:23:00,26.5,22.6,30.21,South,190,1.0,1.0,85,0.00,,,0.00,WUHU216DAVISVP2,2013-02-25 05:23:00,
2013-02-25 00:28:00,26.2,23.1,30.21,South,190,1.0,2.0,88,0.00,,,0.00,WUHU216DAVISVP2,2013-02-25 05:28:00,
2013-02-25 00:33:00,26.3,23.2,30.21,South,190,0.0,2.0,88,0.00,,,0.00,WUHU216DAVISVP2,2013-02-25 05:33:00,
2013-02-25 00:38:00,26.3,23.2,30.21,South,190,1.0,2.0,88,0.00,,,0.00,WUHU216DAVISVP2,2013-02-25 05:38:00,
2013-02-25 00:43:00,26.3,22.9,30.21,South,190,0.0,1.0,87,0.00,,,0.00,WUHU216DAVISVP2,2013-02-25 05:43:00,
2013-02-25 00:48:00,26.0,22.7,30.21,South,190,1.0,1.0,87,0.00,,,0.00,WUHU216DAVISVP2,2013-02-25 05:48:00,
2013-02-25 00:53:00,25.9,22.8,30.21,South,190,0.0,1.0,88,0.00,,,0.00,WUHU216DAVISVP2,2013-02-25 05:53:00,
2013-02-25 00:58:00,26.3,23.2,30.20,South,190,0.0,2.0,88,0.00,,,0.00,WUHU216DAVISVP2,2013-02-25 05:58:00,
2013-02-25 01:03:00,26.8,23.4,30.20,South,190,0.0,2.0,87,0.00,,,0.00,WUHU216DAVISVP2,2013-02-25 06:03:00,
2013-02-25 01:08:00,26.7,22.8,30.20,South,190,0.0,2.0,85,0.00,,,0.00,WUHU216DAVISVP2,2013-02-25 06:08:00,
2013-02-25 01:13:00,26.3,22.7,30.21,South,190,0.0,2.0,86,0.00,,,0.00,WUHU216DAVISVP2,2013-02-25 06:13:00,
2013-02-25 01:18:00,26.0,22.6,30.21,South,190,0.0,1.0,87,0.00,,,0.00,WUHU216DAVISVP2,2013-02-25 06:18:00,
2013-02-25 01:23:00,25.8,22.4,30.21,South,190,0.0,0.0,87,0.00,,,0.00,WUHU216DAVISVP2,2013-02-25 06:23:00,
2013-02-25 01:28:00,25.8,22.7,30.21,South,190,0.0,0.0,88,0.00,,,0.00,WUHU216DAVISVP2,2013-02-25 06:28:00,
2013-02-25 01:33:00,25.7,22.6,30.21,South,190,0.0,0.0,88,0.00,,,0.00,WUHU216DAVISVP2,2013-02-25 06:33:00,
2013-02-25 01:38:00,25.7,22.6,30.21,South,190,0.0,0.0,88,0.00,,,0.00,WUHU216DAVISVP2,2013-02-25 06:38:00,
2013-02-25 01:43:00,25.7,22.6,30.22,South,190,0.0,0.0,88,0.00,,,0.00,WUHU216DAVISVP2,2013-02-25 06:43:00,
2013-02-25 01:49:00,25.6,22.2,30.22,South,190,0.0,0.0,87,0.00,,,0.00,WUHU216DAVISVP2,2013-02-25 06:49:00,
2013-02-25 01:54:00,25.4,22.0,30.22,South,190,0.0,0.0,87,0.00,,,0.00,WUHU216DAVISVP2,2013-02-25 06:54:00,
2013-02-25 01:59:00,25.2,22.1,30.22,South,190,0.0,0.0,88,0.00,,,0.00,WUHU216DAVISVP2,2013-02-25 06:59:00,
2013-02-25 02:04:00,24.8,21.7,30.22,South,190,0.0,0.0,88,0.00,,,0.00,WUHU216DAVISVP2,2013-02-25 07:04:00,
2013-02-25 02:09:00,24.7,21.9,30.21,South,190,0.0,0.0,89,0.00,,,0.00,WUHU216DAVISVP2,2013-02-25 07:09:00,
2013-02-25 02:14:00,24.5,21.9,30.21,South,190,0.0,0.0,90,0.00,,,0.00,WUHU216DAVISVP2,2013-02-25 07:14:00,
2013-02-25 02:19:00,24.5,22.0,30.21,South,190,0.0,0.0,90,0.00,,,0.00,WUHU216DAVISVP2,2013-02-25 07:19:00,
2013-02-25 02:24:00,24.4,21.8,30.21,South,190,0.0,0.0,90,0.00,,,0.00,WUHU216DAVISVP2,2013-02-25 07:24:00,
2013-02-25 02:29:00,24.2,21.6,30.21,South,190,0.0,0.0,90,0.00,,,0.00,WUHU216DAVISVP2,2013-02-25 07:29:00,
2013-02-25 02:34:00,24.1,21.8,30.21,South,190,1.0,2.0,91,0.00,,,0.00,WUHU216DAVISVP2,2013-02-25 07:34:00,
2013-02-25 02:39:00,24.2,21.9,30.21,South,190,0.0,2.0,91,0.00,,,0.00,WUHU216DAVISVP2,2013-02-25 07:39:00,
2013-02-25 02:44:00,24.0,21.4,30.21,South,190,0.0,2.0,90,0.00,,,0.00,WUHU216DAVISVP2,2013-02-25 07:44:00,
2013-02-25 02:49:00,24.0,21.7,30.20,South,190,0.0,2.0,91,0.00,,,0.00,WUHU216DAVISVP2,2013-02-25 07:49:00,
2013-02-25 02:54:00,24.1,21.8,30.20,South,190,0.0,1.0,91,0.00,,,0.00,WUHU216DAVISVP2,2013-02-25 07:54:00,
2013-02-25 02:59:00,24.2,21.9,30.20,South,190,0.0,0.0,91,0.00,,,0.00,WUHU216DAVISVP2,2013-02-25 07:59:00,
2013-02-25 03:04:00,24.1,21.5,30.21,South,190,0.0,0.0,90,0.00,,,0.00,WUHU216DAVISVP2,2013-02-25 08:04:00,
2013-02-25 03:09:00,24.0,21.8,30.21,South,190,0.0,0.0,91,0.00,,,0.00,WUHU216DAVISVP2,2013-02-25 08:09:00,
2013-02-25 03:15:00,23.8,21.3,30.21,South,190,0.0,0.0,90,0.00,,,0.00,WUHU216DAVISVP2,2013-02-25 08:15:00,
2013-02-25 03:20:00,23.7,21.1,30.21,South,190,0.0,0.0,90,0.00,,,0.00,WUHU216DAVISVP2,2013-02-25 08:20:00,
2013-02-25 03:25:00,23.8,21.5,30.21,South,190,0.0,0.0,91,0.00,,,0.00,WUHU216DAVISVP2,2013-02-25 08:25:00,
2013-02-25 03:30:00,24.2,22.2,30.21,South,190,0.0,0.0,92,0.00,,,0.00,WUHU216DAVISVP2,2013-02-25 08:30:00,
2013-02-25 03:35:00,24.7,22.4,30.20,South,190,1.0,2.0,91,0.00,,,0.00,WUHU216DAVISVP2,2013-02-25 08:35:00,
2013-02-25 03:40:00,24.9,22.3,30.20,South,190,2.0,2.0,90,0.00,,,0.00,WUHU216DAVISVP2,2013-02-25 08:40:00,
2013-02-25 03:45:00,25.2,22.6,30.20,South,190,0.0,2.0,90,0.00,,,0.00,WUHU216DAVISVP2,2013-02-25 08:45:00,
2013-02-25 03:50:00,25.4,22.6,30.20,South,190,0.0,2.0,89,0.00,,,0.00,WUHU216DAVISVP2,2013-02-25 08:50:00,
2013-02-25 03:55:00,25.6,22.8,30.20,South,190,0.0,2.0,89,0.00,,,0.00,WUHU216DAVISVP2,2013-02-25 08:55:00,
2013-02-25 04:00:00,25.9,23.1,30.20,South,190,1.0,4.0,89,0.00,,,0.00,WUHU216DAVISVP2,2013-02-25 09:00:00,
2013-02-25 04:05:00,26.0,22.9,30.20,South,190,1.0,4.0,88,0.00,,,0.00,WUHU216DAVISVP2,2013-02-25 09:05:00,
2013-02-25 04:10:00,25.8,22.4,30.20,South,190,1.0,4.0,87,0.00,,,0.00,WUHU216DAVISVP2,2013-02-25 09:10:00,
2013-02-25 04:15:00,25.1,21.8,30.20,South,190,0.0,4.0,87,0.00,,,0.00,WUHU216DAVISVP2,2013-02-25 09:15:00,
2013-02-25 04:20:00,24.7,21.7,30.20,South,190,0.0,2.0,88,0.00,,,0.00,WUHU216DAVISVP2,2013-02-25 09:20:00,
2013-02-25 04:26:00,24.3,21.2,30.20,South,190,0.0,2.0,88,0.00,,,0.00,WUHU216DAVISVP2,2013-02-25 09:26:00,
2013-02-25 04:31:00,24.2,21.4,30.20,South,190,0.0,0.0,89,0.00,,,0.00,WUHU216DAVISVP2,2013-02-25 09:31:00,
2013-02-25 04:36:00,24.3,21.7,30.20,South,190,0.0,1.0,90,0.00,,,0.00,WUHU216DAVISVP2,2013-02-25 09:36:00,
2013-02-25 04:41:00,24.4,21.8,30.20,South,190,0.0,2.0,90,0.00,,,0.00,WUHU216DAVISVP2,2013-02-25 09:41:00,
2013-02-25 04:46:00,24.2,21.4,30.20,South,190,0.0,2.0,89,0.00,,,0.00,WUHU216DAVISVP2,2013-02-25 09:46:00,
2013-02-25 04:51:00,24.0,21.4,30.19,South,190,0.0,2.0,90,0.00,,,0.00,WUHU216DAVISVP2,2013-02-25 09:51:00,
2013-02-25 04:56:00,24.1,21.8,30.19,South,190,0.0,2.0,91,0.00,,,0.00,WUHU216DAVISVP2,2013-02-25 09:56:00,
2013-02-25 05:01:00,24.2,21.9,30.19,South,190,0.0,0.0,91,0.00,,,0.00,WUHU216DAVISVP2,2013-02-25 10:01:00,
2013-02-25 05:06:00,24.3,22.0,30.19,South,190,0.0,2.0,91,0.00,,,0.00,WUHU216DAVISVP2,2013-02-25 10:06:00,
2013-02-25 05:11:00,24.3,21.7,30.20,South,190,0.0,2.0,90,0.00,,,0.00,WUHU216DAVISVP2,2013-02-25 10:11:00,
2013-02-25 05:16:00,24.1,21.8,30.20,South,190,0.0,2.0,91,0.00,,,0.00,WUHU216DAVISVP2,2013-02-25 10:16:00,
2013-02-25 05:21:00,24.1,21.8,30.20,South,190,0.0,2.0,91,0.00,,,0.00,WUHU216DAVISVP2,2013-02-25 10:21:00,
2013-02-25 05:26:00,24.0,21.7,30.20,South,190,0.0,1.0,91,0.00,,,0.00,WUHU216DAVISVP2,2013-02-25 10:26:00,
2013-02-25 05:31:00,23.9,21.7,30.20,South,190,0.0,1.0,91,0.00,,,0.00,WUHU216DAVISVP2,2013-02-25 10:31:00,
2013-02-25 05:36:00,23.8,21.6,30.21,South,190,0.0,1.0,91,0.00,,,0.00,WUHU216DAVISVP2,2013-02-25 10:36:00,
2013-02-25 05:41:00,23.9,21.9,30.22,South,190,0.0,1.0,92,0.00,,,0.00,WUHU216DAVISVP2,2013-02-25 10:41:00,
2013-02-25 05:46:00,23.9,21.6,30.22,South,190,0.0,1.0,91,0.00,,,0.00,WUHU216DAVISVP2,2013-02-25 10:46:00,
2013-02-25 05:51:00,23.8,21.5,30.23,South,190,0.0,1.0,91,0.00,,,0.00,WUHU216DAVISVP2,2013-02-25 10:51:00,
2013-02-25 05:57:00,23.7,21.4,30.23,South,190,0.0,0.0,91,0.00,,,0.00,WUHU216DAVISVP2,2013-02-25 10:57:00,
2013-02-25 06:02:00,23.4,21.1,30.23,South,190,0.0,0.0,91,0.00,,,0.00,WUHU216DAVISVP2,2013-02-25 11:02:00,
2013-02-25 06:07:00,22.7,20.2,30.23,South,190,0.0,0.0,90,0.00,,,0.00,WUHU216DAVISVP2,2013-02-25 11:07:00,
2013-02-25 06:12:00,22.2,19.9,30.23,South,190,0.0,1.0,91,0.00,,,0.00,WUHU216DAVISVP2,2013-02-25 11:12:00,
2013-02-25 06:17:00,22.3,20.3,30.23,South,190,0.0,1.0,92,0.00,,,0.00,WUHU216DAVISVP2,2013-02-25 11:17:00,
2013-02-25 06:22:00,22.3,20.3,30.23,South,190,0.0,1.0,92,0.00,,,0.00,WUHU216DAVISVP2,2013-02-25 11:22:00,
2013-02-25 06:27:00,22.3,20.3,30.23,South,190,2.0,2.0,92,0.00,,,0.00,WUHU216DAVISVP2,2013-02-25 11:27:00,
2013-02-25 06:32:00,22.0,20.0,30.24,South,190,1.0,2.0,92,0.00,,,0.00,WUHU216DAVISVP2,2013-02-25 11:32:00,
2013-02-25 06:37:00,21.7,19.7,30.24,South,190,1.0,2.0,92,0.00,,,0.00,WUHU216DAVISVP2,2013-02-25 11:37:00,
2013-02-25 06:42:00,21.3,19.3,30.24,South,190,0.0,2.0,92,0.00,,,0.00,WUHU216DAVISVP2,2013-02-25 11:42:00,
2013-02-25 06:47:00,21.0,19.0,30.24,South,190,0.0,2.0,92,0.00,,,0.00,WUHU216DAVISVP2,2013-02-25 11:47:00,
2013-02-25 06:52:00,20.9,18.9,30.25,South,190,1.0,2.0,92,0.00,,,0.00,WUHU216DAVISVP2,2013-02-25 11:52:00,
2013-02-25 06:57:00,20.8,19.1,30.25,South,190,0.0,4.0,93,0.00,,,0.00,WUHU216DAVISVP2,2013-02-25 11:57:00,
2013-02-25 07:02:00,20.7,18.9,30.25,South,190,0.0,4.0,93,0.00,,,0.00,WUHU216DAVISVP2,2013-02-25 12:02:00,
2013-02-25 07:07:00,20.7,18.9,30.24,South,190,0.0,4.0,93,0.00,,,0.00,WUHU216DAVISVP2,2013-02-25 12:07:00,
2013-02-25 07:12:00,20.5,18.7,30.25,South,190,0.0,2.0,93,0.00,,,0.00,WUHU216DAVISVP2,2013-02-25 12:12:00,
2013-02-25 07:17:00,20.1,18.1,30.24,South,190,0.0,0.0,92,0.00,,,0.00,WUHU216DAVISVP2,2013-02-25 12:17:00,
2013-02-25 07:23:00,19.8,18.1,30.25,South,190,0.0,0.0,93,0.00,,,0.00,WUHU216DAVISVP2,2013-02-25 12:23:00,
2013-02-25 07:28:00,19.7,18.0,30.25,South,190,0.0,0.0,93,0.00,,,0.00,WUHU216DAVISVP2,2013-02-25 12:28:00,
2013-02-25 07:33:00,20.0,18.5,30.25,South,190,0.0,0.0,94,0.00,,,0.00,WUHU216DAVISVP2,2013-02-25 12:33:00,
2013-02-25 07:38:00,20.1,18.6,30.25,South,190,0.0,0.0,94,0.00,,,0.00,WUHU216DAVISVP2,2013-02-25 12:38:00,
2013-02-25 07:43:00,20.1,18.6,30.25,South,190,0.0,0.0,94,0.00,,,0.00,WUHU216DAVISVP2,2013-02-25 12:43:00,
2013-02-25 07:48:00,20.2,18.7,30.25,South,190,0.0,0.0,94,0.00,,,0.00,WUHU216DAVISVP2,2013-02-25 12:48:00,
2013-02-25 07:53:00,20.5,19.0,30.26,South,190,0.0,0.0,94,0.00,,,0.00,WUHU216DAVISVP2,2013-02-25 12:53:00,
2013-02-25 07:58:00,20.7,19.2,30.26,South,190,0.0,0.0,94,0.00,,,0.00,WUHU216DAVISVP2,2013-02-25 12:58:00,
2013-02-25 08:04:00,20.9,19.4,30.26,South,190,0.0,0.0,94,0.00,,,0.00,WUHU216DAVISVP2,2013-02-25 13:04:00,
2013-02-25 08:09:00,21.2,19.7,30.26,South,190,0.0,0.0,94,0.00,,,0.00,WUHU216DAVISVP2,2013-02-25 13:09:00,
2013-02-25 08:14:00,21.7,20.2,30.26,South,190,0.0,0.0,94,0.00,,,0.00,WUHU216DAVISVP2,2013-02-25 13:14:00,
2013-02-25 08:19:00,22.3,21.0,30.27,South,190,0.0,0.0,95,0.00,,,0.00,WUHU216DAVISVP2,2013-02-25 13:19:00,
2013-02-25 08:24:00,22.9,21.6,30.27,South,190,0.0,0.0,95,0.00,,,0.00,WUHU216DAVISVP2,2013-02-25 13:24:00,
2013-02-25 08:29:00,23.6,22.3,30.27,South,190,0.0,0.0,95,0.00,,,0.00,WUHU216DAVISVP2,2013-02-25 13:29:00,
2013-02-25 08:34:00,24.5,23.2,30.26,South,190,0.0,0.0,95,0.00,,,0.00,WUHU216DAVISVP2,2013-02-25 13:34:00,
2013-02-25 08:39:00,25.6,24.6,30.26,South,190,0.0,0.0,96,0.00,,,0.00,WUHU216DAVISVP2,2013-02-25 13:39:00,
2013-02-25 08:44:00,26.6,25.6,30.26,South,190,2.0,2.0,96,0.00,,,0.00,WUHU216DAVISVP2,2013-02-25 13:44:00,
2013-02-25 08:49:00,27.3,25.8,30.26,NE,55,0.0,5.0,94,0.00,,,0.00,WUHU216DAVISVP2,2013-02-25 13:49:00,
2013-02-25 08:54:00,28.0,26.2,30.26,NE,56,0.0,5.0,93,0.00,,,0.00,WUHU216DAVISVP2,2013-02-25 13:54:00,
2013-02-25 08:59:00,28.5,26.2,30.26,NE,54,4.0,5.0,91,0.00,,,0.00,WUHU216DAVISVP2,2013-02-25 13:59:00,
2013-02-25 09:04:00,28.8,26.2,30.26,NE,54,0.0,5.0,90,0.00,,,0.00,WUHU216DAVISVP2,2013-02-25 14:04:00,
2013-02-25 09:09:00,29.1,26.5,30.25,NE,35,1.0,6.0,90,0.00,,,0.00,WUHU216DAVISVP2,2013-02-25 14:09:00,
2013-02-25 09:15:00,29.4,26.5,30.26,NE,49,3.0,7.0,89,0.00,,,0.00,WUHU216DAVISVP2,2013-02-25 14:15:00,
2013-02-25 09:20:00,29.8,26.9,30.26,ENE,63,4.0,7.0,89,0.00,,,0.00,WUHU216DAVISVP2,2013-02-25 14:20:00,
2013-02-25 09:25:00,30.2,27.0,30.25,NE,44,4.0,7.0,88,0.00,,,0.00,WUHU216DAVISVP2,2013-02-25 14:25:00,
2013-02-25 09:30:00,30.6,27.2,30.26,NE,40,3.0,7.0,87,0.00,,,0.00,WUHU216DAVISVP2,2013-02-25 14:30:00,
2013-02-25 09:35:00,30.7,27.0,30.25,ENE,76,6.0,7.0,86,0.00,,,0.00,WUHU216DAVISVP2,2013-02-25 14:35:00,
2013-02-25 09:40:00,30.9,27.5,30.25,NE,50,3.0,7.0,87,0.00,,,0.00,WUHU216DAVISVP2,2013-02-25 14:40:00,
2013-02-25 09:45:00,31.1,27.1,30.25,NE,52,4.0,7.0,85,0.01,,,0.01,WUHU216DAVISVP2,2013-02-25 14:45:00,
2013-02-25 09:51:00,31.3,27.3,30.25,ENE,65,1.0,7.0,85,0.01,,,0.01,WUHU216DAVISVP2,2013-02-25 14:51:00,
2013-02-25 09:56:00,31.7,27.7,30.25,ENE,61,2.0,7.0,85,0.01,,,0.01,WUHU216DAVISVP2,2013-02-25 14:56:00,
2013-02-25 10:01:00,32.2,28.2,30.25,ENE,65,1.0,7.0,85,0.01,,,0.01,WUHU216DAVISVP2,2013-02-25 15:01:00,
2013-02-25 10:06:00,32.5,28.2,30.25,ENE,63,5.0,7.0,84,0.01,,,0.01,WUHU216DAVISVP2,2013-02-25 15:06:00,
2013-02-25 10:12:00,32.7,27.8,30.24,NE,53,2.0,6.0,82,0.01,,,0.01,WUHU216DAVISVP2,2013-02-25 15:12:00,
2013-02-25 10:17:00,32.8,27.6,30.24,ENE,73,0.0,8.0,81,0.01,,,0.01,WUHU216DAVISVP2,2013-02-25 15:17:00,
2013-02-25 10:22:00,33.0,28.1,30.24,ENE,61,0.0,8.0,82,0.02,,,0.02,WUHU216DAVISVP2,2013-02-25 15:22:00,
2013-02-25 10:27:00,33.4,27.9,30.24,ENE,61,4.0,8.0,80,0.02,,,0.02,WUHU216DAVISVP2,2013-02-25 15:27:00,
2013-02-25 10:32:00,33.2,27.7,30.25,ENE,57,4.0,8.0,80,0.02,,,0.02,WUHU216DAVISVP2,2013-02-25 15:32:00,
2013-02-25 10:37:00,33.3,28.1,30.24,NE,55,5.0,7.0,81,0.02,,,0.02,WUHU216DAVISVP2,2013-02-25 15:37:00,
2013-02-25 10:42:00,33.6,27.5,30.25,ENE,69,0.0,8.0,78,0.02,,,0.02,WUHU216DAVISVP2,2013-02-25 15:42:00,
2013-02-25 10:47:00,34.3,27.6,30.25,East,94,9.0,10.0,76,0.01,,,0.02,WUHU216DAVISVP2,2013-02-25 15:47:00,
2013-02-25 10:52:00,34.4,27.6,30.25,ENE,75,7.0,10.0,76,0.01,,,0.02,WUHU216DAVISVP2,2013-02-25 15:52:00,
2013-02-25 10:57:00,34.9,28.1,30.25,East,79,7.0,10.0,76,0.01,,,0.02,WUHU216DAVISVP2,2013-02-25 15:57:00,
2013-02-25 11:02:00,34.9,27.2,30.25,East,88,7.0,10.0,73,0.01,,,0.02,WUHU216DAVISVP2,2013-02-25 16:02:00,
2013-02-25 11:07:00,35.2,27.8,30.25,ENE,72,5.0,10.0,74,0.01,,,0.02,WUHU216DAVISVP2,2013-02-25 16:07:00,
2013-02-25 11:13:00,35.6,27.8,30.25,East,79,0.0,10.0,73,0.01,,,0.02,WUHU216DAVISVP2,2013-02-25 16:13:00,
2013-02-25 11:18:00,35.7,26.9,30.25,NE,55,2.0,10.0,70,0.01,,,0.02,WUHU216DAVISVP2,2013-02-25 16:18:00,
2013-02-25 11:23:00,35.5,26.4,30.25,NE,36,10.0,11.0,69,0.00,,,0.02,WUHU216DAVISVP2,2013-02-25 16:23:00,
2013-02-25 11:28:00,35.3,27.2,30.25,NE,35,4.0,11.0,72,0.00,,,0.02,WUHU216DAVISVP2,2013-02-25 16:28:00,
2013-02-25 11:33:00,35.1,26.7,30.25,East,80,5.0,11.0,71,0.00,,,0.02,WUHU216DAVISVP2,2013-02-25 16:33:00,
2013-02-25 11:38:00,35.6,26.8,30.24,NE,40,6.0,13.0,70,0.01,,,0.03,WUHU216DAVISVP2,2013-02-25 16:38:00,
2013-02-25 11:43:00,35.8,27.4,30.24,ESE,113,2.0,13.0,71,0.01,,,0.03,WUHU216DAVISVP2,2013-02-25 16:43:00,
2013-02-25 11:48:00,36.1,26.6,30.25,East,82,8.0,13.0,68,0.01,,,0.03,WUHU216DAVISVP2,2013-02-25 16:48:00,
2013-02-25 11:53:00,36.0,26.9,30.25,NE,53,0.0,13.0,69,0.01,,,0.03,WUHU216DAVISVP2,2013-02-25 16:53:00,
2013-02-25 11:58:00,36.0,27.9,30.24,NE,46,0.0,12.0,72,0.01,,,0.03,WUHU216DAVISVP2,2013-02-25 16:58:00,
2013-02-25 12:03:00,37.0,28.5,30.23,East,91,7.0,12.0,71,0.01,,,0.03,WUHU216DAVISVP2,2013-02-25 17:03:00,
2013-02-25 12:08:00,37.2,27.6,30.23,North,5,3.0,10.0,68,0.01,,,0.03,WUHU216DAVISVP2,2013-02-25 17:08:00,
2013-02-25 12:13:00,37.1,27.2,30.23,ENE,70,6.0,12.0,67,0.02,,,0.04,WUHU216DAVISVP2,2013-02-25 17:13:00,
2013-02-25 12:18:00,36.5,26.3,30.23,NE,38,6.0,12.0,66,0.02,,,0.04,WUHU216DAVISVP2,2013-02-25 17:18:00,
2013-02-25 12:23:00,36.6,27.1,30.23,East,80,7.0,13.0,68,0.02,,,0.04,WUHU216DAVISVP2,2013-02-25 17:23:00,
2013-02-25 12:29:00,36.7,26.8,30.23,East,92,8.0,14.0,67,0.02,,,0.04,WUHU216DAVISVP2,2013-02-25 17:29:00,
2013-02-25 12:34:00,36.5,27.0,30.22,ESE,110,5.0,14.0,68,0.02,,,0.04,WUHU216DAVISVP2,2013-02-25 17:34:00,
2013-02-25 12:39:00,36.6,26.8,30.22,East,91,7.0,14.0,67,0.01,,,0.04,WUHU216DAVISVP2,2013-02-25 17:39:00,
2013-02-25 12:44:00,37.1,27.2,30.22,East,85,11.0,14.0,67,0.01,,,0.04,WUHU216DAVISVP2,2013-02-25 17:44:00,
2013-02-25 12:49:00,37.0,27.5,30.21,ENE,75,5.0,12.0,68,0.01,,,0.04,WUHU216DAVISVP2,2013-02-25 17:49:00,
2013-02-25 12:54:00,36.8,26.9,30.21,ENE,65,5.0,12.0,67,0.01,,,0.04,WUHU216DAVISVP2,2013-02-25 17:54:00,
2013-02-25 12:59:00,36.7,27.6,30.20,East,85,6.0,12.0,69,0.01,,,0.04,WUHU216DAVISVP2,2013-02-25 17:59:00,
2013-02-25 13:04:00,36.9,27.8,30.20,ENE,65,5.0,13.0,69,0.01,,,0.04,WUHU216DAVISVP2,2013-02-25 18:04:00,
2013-02-25 13:09:00,36.8,27.3,30.19,ENE,65,6.0,13.0,68,0.01,,,0.04,WUHU216DAVISVP2,2013-02-25 18:09:00,
2013-02-25 13:14:00,37.1,28.6,30.19,NE,45,8.0,13.0,71,0.00,,,0.04,WUHU216DAVISVP2,2013-02-25 18:14:00,
2013-02-25 13:19:00,37.3,27.8,30.18,NNE,23,9.0,13.0,68,0.00,,,0.04,WUHU216DAVISVP2,2013-02-25 18:19:00,
2013-02-25 13:24:00,37.1,28.3,30.18,East,90,4.0,12.0,70,0.00,,,0.04,WUHU216DAVISVP2,2013-02-25 18:24:00,
2013-02-25 13:29:00,37.5,28.3,30.17,NE,52,3.0,10.0,69,0.00,,,0.04,WUHU216DAVISVP2,2013-02-25 18:29:00,
2013-02-25 13:34:00,37.3,28.1,30.18,NNE,28,4.0,10.0,69,0.00,,,0.04,WUHU216DAVISVP2,2013-02-25 18:34:00,
2013-02-25 13:39:00,37.1,27.9,30.18,East,96,1.0,9.0,69,0.00,,,0.04,WUHU216DAVISVP2,2013-02-25 18:39:00,
2013-02-25 13:44:00,37.3,27.8,30.19,ENE,62,7.0,9.0,68,0.00,,,0.04,WUHU216DAVISVP2,2013-02-25 18:44:00,
2013-02-25 13:50:00,37.5,28.3,30.18,ENE,66,0.0,9.0,69,0.00,,,0.04,WUHU216DAVISVP2,2013-02-25 18:50:00,
2013-02-25 13:55:00,37.8,27.5,30.18,East,98,2.0,12.0,66,0.00,,,0.04,WUHU216DAVISVP2,2013-02-25 18:55:00,
2013-02-25 14:00:00,37.7,27.4,30.18,East,84,6.0,12.0,66,0.00,,,0.04,WUHU216DAVISVP2,2013-02-25 19:00:00,
2013-02-25 14:05:00,37.2,27.3,30.18,ENE,64,4.0,12.0,67,0.00,,,0.04,WUHU216DAVISVP2,2013-02-25 19:05:00,
2013-02-25 14:10:00,37.4,28.2,30.18,ENE,57,5.0,11.0,69,0.00,,,0.04,WUHU216DAVISVP2,2013-02-25 19:10:00,
2013-02-25 14:15:00,37.9,28.0,30.17,ENE,58,7.0,11.0,67,0.00,,,0.04,WUHU216DAVISVP2,2013-02-25 19:15:00,
2013-02-25 14:20:00,37.9,28.0,30.17,North,360,5.0,11.0,67,0.00,,,0.04,WUHU216DAVISVP2,2013-02-25 19:20:00,
2013-02-25 14:25:00,37.9,28.0,30.17,NE,42,0.0,11.0,67,0.00,,,0.04,WUHU216DAVISVP2,2013-02-25 19:25:00,
2013-02-25 14:30:00,37.9,27.6,30.16,ENE,60,6.0,11.0,66,0.00,,,0.04,WUHU216DAVISVP2,2013-02-25 19:30:00,
2013-02-25 14:35:00,38.1,28.9,30.16,NNW,347,3.0,10.0,69,0.00,,,0.04,WUHU216DAVISVP2,2013-02-25 19:35:00,
2013-02-25 14:40:00,38.6,28.3,30.16,ENE,61,3.0,10.0,66,0.00,,,0.04,WUHU216DAVISVP2,2013-02-25 19:40:00,
2013-02-25 14:45:00,38.8,29.2,30.16,NE,55,4.0,10.0,68,0.00,,,0.04,WUHU216DAVISVP2,2013-02-25 19:45:00,
2013-02-25 14:50:00,38.7,28.4,30.16,NNE,19,6.0,10.0,66,0.00,,,0.04,WUHU216DAVISVP2,2013-02-25 19:50:00,
2013-02-25 14:55:00,38.7,28.4,30.17,NE,34,5.0,10.0,66,0.00,,,0.04,WUHU216DAVISVP2,2013-02-25 19:55:00,
2013-02-25 15:00:00,38.5,28.2,30.18,NNE,16,4.0,10.0,66,0.00,,,0.04,WUHU216DAVISVP2,2013-02-25 20:00:00,
2013-02-25 15:05:00,38.4,27.7,30.17,NE,53,5.0,10.0,65,0.01,,,0.05,WUHU216DAVISVP2,2013-02-25 20:05:00,
2013-02-25 15:10:00,38.3,27.6,30.17,North,5,2.0,10.0,65,0.01,,,0.05,WUHU216DAVISVP2,2013-02-25 20:10:00,
2013-02-25 15:16:00,38.4,28.8,30.15,NE,38,5.0,9.0,68,0.01,,,0.05,WUHU216DAVISVP2,2013-02-25 20:16:00,
2013-02-25 15:21:00,38.8,28.5,30.14,NE,49,1.0,9.0,66,0.01,,,0.05,WUHU216DAVISVP2,2013-02-25 20:21:00,
2013-02-25 15:26:00,39.0,28.3,30.14,ESE,106,5.0,9.0,65,0.01,,,0.05,WUHU216DAVISVP2,2013-02-25 20:26:00,
2013-02-25 15:31:00,39.1,28.8,30.14,ENE,62,8.0,9.0,66,0.01,,,0.05,WUHU216DAVISVP2,2013-02-25 20:31:00,
2013-02-25 15:36:00,38.8,28.1,30.14,ESE,107,3.0,11.0,65,0.01,,,0.05,WUHU216DAVISVP2,2013-02-25 20:36:00,
2013-02-25 15:41:00,38.9,28.2,30.15,East,82,0.0,11.0,65,0.01,,,0.05,WUHU216DAVISVP2,2013-02-25 20:41:00,
2013-02-25 15:46:00,38.9,28.1,30.16,East,82,1.0,11.0,65,0.01,,,0.05,WUHU216DAVISVP2,2013-02-25 20:46:00,
2013-02-25 15:51:00,39.2,28.9,30.15,ENE,59,5.0,11.0,66,0.01,,,0.05,WUHU216DAVISVP2,2013-02-25 20:51:00,
2013-02-25 15:56:00,39.2,28.8,30.16,ESE,109,6.0,11.0,66,0.01,,,0.05,WUHU216DAVISVP2,2013-02-25 20:56:00,
2013-02-25 16:01:00,39.3,28.2,30.16,East,83,6.0,11.0,64,0.01,,,0.05,WUHU216DAVISVP2,2013-02-25 21:01:00,
2013-02-25 16:06:00,39.3,29.0,30.16,NE,55,1.0,9.0,66,0.00,,,0.05,WUHU216DAVISVP2,2013-02-25 21:06:00,
2013-02-25 16:11:00,39.2,28.9,30.16,NNE,12,5.0,9.0,66,0.00,,,0.05,WUHU216DAVISVP2,2013-02-25 21:11:00,
2013-02-25 16:16:00,39.2,28.9,30.16,East,94,6.0,9.0,66,0.00,,,0.05,WUHU216DAVISVP2,2013-02-25 21:16:00,
2013-02-25 16:21:00,39.1,29.1,30.15,NE,42,4.0,9.0,67,0.00,,,0.05,WUHU216DAVISVP2,2013-02-25 21:21:00,
2013-02-25 16:26:00,39.2,28.9,30.16,NE,56,5.0,9.0,66,0.00,,,0.05,WUHU216DAVISVP2,2013-02-25 21:26:00,
2013-02-25 16:31:00,39.3,28.9,30.16,ENE,57,6.0,10.0,66,0.00,,,0.05,WUHU216DAVISVP2,2013-02-25 21:31:00,
2013-02-25 16:37:00,39.4,28.7,30.15,North,355,2.0,10.0,65,0.00,,,0.05,WUHU216DAVISVP2,2013-02-25 21:37:00,
2013-02-25 16:42:00,39.4,29.1,30.15,NE,43,5.0,10.0,66,0.00,,,0.05,WUHU216DAVISVP2,2013-02-25 21:42:00,
2013-02-25 16:47:00,39.4,29.4,30.15,East,85,5.0,10.0,67,0.00,,,0.05,WUHU216DAVISVP2,2013-02-25 21:47:00,
2013-02-25 16:52:00,39.3,29.3,30.15,ENE,59,6.0,9.0,67,0.00,,,0.05,WUHU216DAVISVP2,2013-02-25 21:52:00,
2013-02-25 16:57:00,39.1,29.1,30.14,ENE,76,4.0,9.0,67,0.00,,,0.05,WUHU216DAVISVP2,2013-02-25 21:57:00,
2013-02-25 17:02:00,39.1,29.1,30.15,NNE,17,5.0,9.0,67,0.00,,,0.05,WUHU216DAVISVP2,2013-02-25 22:02:00,
2013-02-25 17:07:00,39.0,29.0,30.15,NE,45,3.0,9.0,67,0.00,,,0.05,WUHU216DAVISVP2,2013-02-25 22:07:00,
2013-02-25 17:12:00,38.9,29.0,30.15,ENE,77,6.0,9.0,67,0.00,,,0.05,WUHU216DAVISVP2,2013-02-25 22:12:00,
2013-02-25 17:17:00,38.9,28.9,30.15,East,81,6.0,9.0,67,0.00,,,0.05,WUHU216DAVISVP2,2013-02-25 22:17:00,
2013-02-25 17:22:00,38.8,28.9,30.14,ENE,65,4.0,9.0,67,0.00,,,0.05,WUHU216DAVISVP2,2013-02-25 22:22:00,
2013-02-25 17:27:00,38.9,29.3,30.14,NE,38,0.0,9.0,68,0.00,,,0.05,WUHU216DAVISVP2,2013-02-25 22:27:00,
2013-02-25 17:32:00,38.7,29.1,30.14,ENE,66,5.0,7.0,68,0.00,,,0.05,WUHU216DAVISVP2,2013-02-25 22:32:00,
2013-02-25 17:37:00,38.6,29.4,30.14,ENE,61,0.0,7.0,69,0.00,,,0.05,WUHU216DAVISVP2,2013-02-25 22:37:00,
2013-02-25 17:42:00,38.4,29.2,30.14,ENE,78,6.0,8.0,69,0.00,,,0.05,WUHU216DAVISVP2,2013-02-25 22:42:00,
2013-02-25 17:47:00,38.3,29.1,30.14,ESE,106,0.0,8.0,69,0.00,,,0.05,WUHU216DAVISVP2,2013-02-25 22:47:00,
2013-02-25 17:52:00,38.3,29.4,30.15,ENE,76,1.0,8.0,70,0.00,,,0.05,WUHU216DAVISVP2,2013-02-25 22:52:00,
2013-02-25 17:57:00,38.3,29.1,30.15,ENE,76,0.0,8.0,69,0.00,,,0.05,WUHU216DAVISVP2,2013-02-25 22:57:00,
2013-02-25 18:02:00,38.1,28.8,30.15,ENE,76,1.0,4.0,69,0.00,,,0.05,WUHU216DAVISVP2,2013-02-25 23:02:00,
2013-02-25 18:08:00,37.8,29.0,30.14,ENE,76,0.0,2.0,70,0.00,,,0.05,WUHU216DAVISVP2,2013-02-25 23:08:00,
2013-02-25 18:13:00,37.3,28.8,30.15,ENE,76,0.0,1.0,71,0.00,,,0.05,WUHU216DAVISVP2,2013-02-25 23:13:00,
2013-02-25 18:18:00,36.9,28.8,30.15,ENE,76,0.0,1.0,72,0.00,,,0.05,WUHU216DAVISVP2,2013-02-25 23:18:00,
2013-02-25 18:23:00,36.5,28.7,30.15,ENE,76,0.0,0.0,73,0.00,,,0.05,WUHU216DAVISVP2,2013-02-25 23:23:00,
2013-02-25 18:28:00,36.0,28.6,30.15,ENE,76,0.0,0.0,74,0.00,,,0.05,WUHU216DAVISVP2,2013-02-25 23:28:00,
2013-02-25 18:33:00,35.5,28.4,30.15,ENE,76,0.0,0.0,75,0.00,,,0.05,WUHU216DAVISVP2,2013-02-25 23:33:00,
2013-02-25 18:38:00,35.1,28.3,30.15,ENE,76,0.0,0.0,76,0.00,,,0.05,WUHU216DAVISVP2,2013-02-25 23:38:00,
2013-02-25 18:43:00,34.8,28.4,30.15,ENE,76,0.0,0.0,77,0.00,,,0.05,WUHU216DAVISVP2,2013-02-25 23:43:00,
2013-02-25 18:48:00,34.4,28.0,30.16,ENE,76,0.0,0.0,77,0.00,,,0.05,WUHU216DAVISVP2,2013-02-25 23:48:00,
2013-02-25 18:53:00,34.1,28.0,30.15,ENE,76,0.0,0.0,78,0.00,,,0.05,WUHU216DAVISVP2,2013-02-25 23:53:00,
2013-02-25 18:58:00,33.8,28.0,30.15,ENE,76,0.0,0.0,79,0.00,,,0.05,WUHU216DAVISVP2,2013-02-25 23:58:00,
2013-02-25 19:03:00,33.5,27.7,30.15,ENE,76,0.0,0.0,79,0.00,,,0.05,WUHU216DAVISVP2,2013-02-26 00:03:00,
2013-02-25 19:08:00,33.7,27.9,30.15,North,360,3.0,4.0,79,0.00,,,0.05,WUHU216DAVISVP2,2013-02-26 00:08:00,
2013-02-25 19:13:00,34.0,28.5,30.15,NNE,18,1.0,7.0,80,0.00,,,0.05,WUHU216DAVISVP2,2013-02-26 00:13:00,
2013-02-25 19:18:00,33.9,28.4,30.16,NNE,22,0.0,7.0,80,0.00,,,0.05,WUHU216DAVISVP2,2013-02-26 00:18:00,
2013-02-25 19:23:00,33.7,28.2,30.15,NNE,17,0.0,7.0,80,0.00,,,0.05,WUHU216DAVISVP2,2013-02-26 00:23:00,
2013-02-25 19:29:00,33.5,28.3,30.15,North,351,1.0,7.0,81,0.00,,,0.05,WUHU216DAVISVP2,2013-02-26 00:29:00,
2013-02-25 19:34:00,33.4,28.5,30.14,North,350,4.0,7.0,82,0.00,,,0.05,WUHU216DAVISVP2,2013-02-26 00:34:00,
2013-02-25 19:39:00,33.3,28.4,30.14,NE,42,0.0,7.0,82,0.00,,,0.05,WUHU216DAVISVP2,2013-02-26 00:39:00,
2013-02-25 19:44:00,33.1,28.2,30.14,NNE,30,2.0,8.0,82,0.00,,,0.05,WUHU216DAVISVP2,2013-02-26 00:44:00,
2013-02-25 19:49:00,33.0,28.1,30.14,NNW,337,2.0,8.0,82,0.00,,,0.05,WUHU216DAVISVP2,2013-02-26 00:49:00,
2013-02-25 19:54:00,32.8,27.9,30.14,NE,38,1.0,8.0,82,0.00,,,0.05,WUHU216DAVISVP2,2013-02-26 00:54:00,
2013-02-25 19:59:00,32.6,27.7,30.13,NNE,27,0.0,8.0,82,0.00,,,0.05,WUHU216DAVISVP2,2013-02-26 00:59:00,
2013-02-25 20:04:00,32.5,27.6,30.13,NNE,32,0.0,8.0,82,0.00,,,0.05,WUHU216DAVISVP2,2013-02-26 01:04:00,
2013-02-25 20:09:00,32.3,27.4,30.13,NNE,23,2.0,8.0,82,0.00,,,0.05,WUHU216DAVISVP2,2013-02-26 01:09:00,
2013-02-25 20:14:00,32.1,27.2,30.13,NW,325,1.0,6.0,82,0.00,,,0.05,WUHU216DAVISVP2,2013-02-26 01:14:00,
2013-02-25 20:19:00,31.9,27.0,30.13,North,5,0.0,6.0,82,0.00,,,0.05,WUHU216DAVISVP2,2013-02-26 01:19:00,
2013-02-25 20:24:00,31.7,26.8,30.13,NNW,331,0.0,6.0,82,0.00,,,0.05,WUHU216DAVISVP2,2013-02-26 01:24:00,
2013-02-25 20:29:00,31.6,26.7,30.12,ENE,61,0.0,6.0,82,0.00,,,0.05,WUHU216DAVISVP2,2013-02-26 01:29:00,
2013-02-25 20:34:00,31.4,26.5,30.12,NNW,341,4.0,6.0,82,0.00,,,0.05,WUHU216DAVISVP2,2013-02-26 01:34:00,
2013-02-25 20:39:00,31.3,26.4,30.12,NE,48,0.0,8.0,82,0.00,,,0.05,WUHU216DAVISVP2,2013-02-26 01:39:00,
2013-02-25 20:45:00,31.3,26.4,30.11,SSE,152,0.0,8.0,82,0.00,,,0.05,WUHU216DAVISVP2,2013-02-26 01:45:00,
2013-02-25 20:50:00,31.1,26.2,30.11,NW,324,0.0,8.0,82,0.00,,,0.05,WUHU216DAVISVP2,2013-02-26 01:50:00,
2013-02-25 20:55:00,31.0,26.1,30.10,North,360,5.0,8.0,82,0.00,,,0.05,WUHU216DAVISVP2,2013-02-26 01:55:00,
2013-02-25 21:00:00,30.9,25.8,30.09,NNW,328,0.0,6.0,81,0.00,,,0.05,WUHU216DAVISVP2,2013-02-26 02:00:00,
2013-02-25 21:05:00,30.8,25.7,30.09,NE,42,2.0,6.0,81,0.00,,,0.05,WUHU216DAVISVP2,2013-02-26 02:05:00,
2013-02-25 21:10:00,30.8,25.7,30.09,NE,36,0.0,9.0,81,0.00,,,0.05,WUHU216DAVISVP2,2013-02-26 02:10:00,
2013-02-25 21:15:00,30.8,25.7,30.08,NE,40,5.0,10.0,81,0.00,,,0.05,WUHU216DAVISVP2,2013-02-26 02:15:00,
2013-02-25 21:20:00,30.7,25.6,30.08,NNW,344,4.0,10.0,81,0.00,,,0.05,WUHU216DAVISVP2,2013-02-26 02:20:00,
2013-02-25 21:25:00,30.6,25.5,30.08,NW,315,7.0,11.0,81,0.00,,,0.05,WUHU216DAVISVP2,2013-02-26 02:25:00,
2013-02-25 21:30:00,30.6,25.5,30.09,NE,55,0.0,11.0,81,0.00,,,0.05,WUHU216DAVISVP2,2013-02-26 02:30:00,
2013-02-25 21:35:00,30.6,25.5,30.10,NE,55,1.0,11.0,81,0.00,,,0.05,WUHU216DAVISVP2,2013-02-26 02:35:00,
2013-02-25 21:40:00,30.5,25.4,30.10,East,82,2.0,11.0,81,0.00,,,0.05,WUHU216DAVISVP2,2013-02-26 02:40:00,
2013-02-25 21:45:00,30.3,25.5,30.10,NNW,333,0.0,11.0,82,0.00,,,0.05,WUHU216DAVISVP2,2013-02-26 02:45:00,
2013-02-25 21:50:00,30.2,25.4,30.10,WSW,238,0.0,8.0,82,0.00,,,0.05,WUHU216DAVISVP2,2013-02-26 02:50:00,
2013-02-25 21:57:00,30.1,25.3,30.10,East,84,1.0,6.0,82,0.00,,,0.05,WUHU216DAVISVP2,2013-02-26 02:57:00,
2013-02-25 22:02:00,30.0,25.4,30.10,NE,51,4.0,7.0,83,0.00,,,0.05,WUHU216DAVISVP2,2013-02-26 03:02:00,
2013-02-25 22:07:00,29.9,25.4,30.12,NE,37,0.0,7.0,83,0.00,,,0.05,WUHU216DAVISVP2,2013-02-26 03:07:00,
2013-02-25 22:12:00,29.9,25.4,30.13,East,94,1.0,7.0,83,0.00,,,0.05,WUHU216DAVISVP2,2013-02-26 03:12:00,
2013-02-25 22:17:00,30.0,25.2,30.14,ENE,78,4.0,7.0,82,0.00,,,0.05,WUHU216DAVISVP2,2013-02-26 03:17:00,
2013-02-25 22:22:00,30.2,25.4,30.14,East,90,3.0,8.0,82,0.00,,,0.05,WUHU216DAVISVP2,2013-02-26 03:22:00,
2013-02-25 22:27:00,30.2,25.4,30.14,NE,39,1.0,8.0,82,0.00,,,0.05,WUHU216DAVISVP2,2013-02-26 03:27:00,
2013-02-25 22:32:00,30.1,25.3,30.14,NE,49,1.0,8.0,82,0.00,,,0.05,WUHU216DAVISVP2,2013-02-26 03:32:00,
2013-02-25 22:37:00,29.9,25.1,30.13,ESE,102,1.0,8.0,82,0.00,,,0.05,WUHU216DAVISVP2,2013-02-26 03:37:00,
2013-02-25 22:42:00,29.7,24.9,30.13,East,92,0.0,6.0,82,0.00,,,0.05,WUHU216DAVISVP2,2013-02-26 03:42:00,
2013-02-25 22:47:00,29.6,25.1,30.13,East,92,0.0,6.0,83,0.00,,,0.05,WUHU216DAVISVP2,2013-02-26 03:47:00,
2013-02-25 22:53:00,29.4,24.9,30.13,NNE,26,0.0,6.0,83,0.00,,,0.05,WUHU216DAVISVP2,2013-02-26 03:53:00,
2013-02-25 22:58:00,29.3,24.8,30.13,NNE,26,1.0,5.0,83,0.00,,,0.05,WUHU216DAVISVP2,2013-02-26 03:58:00,
2013-02-25 23:03:00,29.2,24.9,30.13,NNE,19,0.0,5.0,84,0.00,,,0.05,WUHU216DAVISVP2,2013-02-26 04:03:00,
2013-02-25 23:08:00,29.0,24.8,30.13,NNE,19,0.0,5.0,84,0.00,,,0.05,WUHU216DAVISVP2,2013-02-26 04:08:00,
2013-02-25 23:13:00,28.8,24.6,30.13,NNE,29,0.0,2.0,84,0.00,,,0.05,WUHU216DAVISVP2,2013-02-26 04:13:00,
2013-02-25 23:18:00,28.7,24.7,30.12,NE,40,0.0,5.0,85,0.00,,,0.05,WUHU216DAVISVP2,2013-02-26 04:18:00,
2013-02-25 23:23:00,28.7,24.7,30.12,NE,40,0.0,5.0,85,0.00,,,0.05,WUHU216DAVISVP2,2013-02-26 04:23:00,
2013-02-25 23:28:00,28.7,24.7,30.12,NE,40,0.0,5.0,85,0.00,,,0.05,WUHU216DAVISVP2,2013-02-26 04:28:00,
2013-02-25 23:33:00,28.7,24.8,30.12,North,11,0.0,5.0,85,0.00,,,0.05,WUHU216DAVISVP2,2013-02-26 04:33:00,
2013-02-25 23:38:00,28.7,24.8,30.12,North,5,1.0,6.0,85,0.00,,,0.05,WUHU216DAVISVP2,2013-02-26 04:38:00,
2013-02-25 23:43:00,28.5,24.5,30.11,North,5,0.0,6.0,85,0.00,,,0.05,WUHU216DAVISVP2,2013-02-26 04:43:00,
2013-02-25 23:48:00,28.5,24.5,30.11,North,350,0.0,6.0,85,0.00,,,0.05,WUHU216DAVISVP2,2013-02-26 04:48:00,
2013-02-25 23:53:00,28.5,24.5,30.10,NNE,21,0.0,6.0,85,0.00,,,0.05,WUHU216DAVISVP2,2013-02-26 04:53:00,
2013-02-25 23:58:00,28.5,24.5,30.10,NNE,22,0.0,6.0,85,0.00,,,0.05,WUHU216DAVISVP2,2013-02-26 04:58:00,